Regional Weather Roundup
Issued by NWS

Home | Current Version | Previous Version | Text Only | Print | Product List | Glossary On
Versions: 1 2 3 4 5 6 7 8 9 10 11 12 13 14 15 16 17 18 19 20 21 22 23 24 25 26 27 28 29 30 31 32 33 34 35 36 37 38 39 40 41 42 43 44 45 46 47 48 49 50
000
ASUS43 KTOP 272208
RWRKS

WEATHER ROUNDUP FOR KANSAS
NATIONAL WEATHER SERVICE GOODLAND KS
400 PM CST MON FEB 27 2017

NOTE:  "FAIR" INDICATES FEW OR NO CLOUDS BELOW 12,000 FEET WITH NO
SIGNIFICANT WEATHER AND/OR OBSTRUCTIONS TO VISIBILITY.

KSZ001>006-013>018-027>032-041>047-272300-
NORTHWEST KANSAS

CITY           SKY/WX    TMP DP  RH WIND       PRES   REMARKS
GOODLAND       SUNNY     58   9  14 SW14G23   29.60F
HAYS             N/A     65  21  18 SW16G24   29.66F
HILL CITY      SUNNY     62  17  17 SW12      29.65F
RUSSELL        SUNNY     66  22  18 SW18G29   29.66S
$$

KSZ061>065-074>080-084>089-272300-
SOUTHWEST KANSAS

CITY           SKY/WX    TMP DP  RH WIND       PRES   REMARKS
DODGE CITY     SUNNY     64  17  16 SW17      29.67F
ELKHART          N/A     65  19  17 SW16        N/A
GARDEN CITY    SUNNY     65  17  15 S16G22    29.65F
GREAT BEND     CLOUDY    65  38  36 S17       29.67F
LIBERAL        CLOUDY    70  21  16 SW20      29.68F
PRATT          SUNNY     58  42  55 SE16      29.69F
$$

KSZ066>073-081>083-090>101-272300-
SOUTHEAST KANSAS

CITY           SKY/WX    TMP DP  RH WIND       PRES   REMARKS
CHANUTE        MOSUNNY   64  50  60 S15       29.81F
COFFEYVILLE    MOSUNNY   65  53  65 S17       29.82F
HUTCHINSON     SUNNY     60  45  57 S16G23    29.73F
MEDICINE LODGE   N/A     69  34  27 S22G29    29.68F
PARSONS        MOSUNNY   67  52  58 S17G23    29.82F
WICHITA INTL   PTSUNNY   62  48  60 S16       29.75F
WICHITA JABRA  SUNNY     61  47  59 S16G24    29.75F
WICHITA MCCONL SUNNY     62  46  56 S16       29.75F
WINFIELD       SUNNY     65  48  54 S14G21    29.78F
$$

KSZ007>012-019>026-033>040-048>060-102>105-272300-
NORTHEAST KANSAS

CITY           SKY/WX    TMP DP  RH WIND       PRES   REMARKS
CONCORDIA      MOSUNNY   59  45  59 S21G29    29.70F
EMPORIA        SUNNY     61  47  59 S23G29    29.76F
LAWRENCE         N/A     62  38  40 MISG      29.80F
MANHATTAN      PTSUNNY   64  46  52 S23G30    29.72F
MARYSVILLE     PTSUNNY   59  41  51 S16G24    29.73F
OLATHE IND     PTSUNNY   63  39  41 SE20      29.81F
OLATHE EXE     PTSUNNY   61  40  45 SE14      29.81F
SALINA         SUNNY     63  43  48 S24G31    29.72F
TOPEKA BILLARD SUNNY     64  41  42 SE22G30   29.76F
TOPEKA FORBES  MOSUNNY   65  42  43 S18G31    29.77F
$$




USA.gov is the U.S. government's official web portal to all federal, state and local government web resources and services.